Regional Weather Roundup
Issued by NWS Northern Indiana

Home | Current Version | Previous Version | Text Only | Print | Product List | Glossary On
Versions: 1 2 3 4 5 6 7 8 9 10 11 12 13 14 15 16 17 18 19 20 21 22 23 24 25 26 27 28 29 30 31 32 33 34 35 36 37 38 39 40 41 42 43 44 45 46 47 48 49 50
000
ASUS43 KIWX 220310
RWRIWX

KIWX WEATHER ROUNDUP
NATIONAL WEATHER SERVICE NORTHERN INDIANA
1000 PM EST SAT JAN 21 2017

NOTE: "FAIR" INDICATES FEW OR NO CLOUDS BELOW 12,000 FEET WITH NO
SIGNIFICANT WEATHER AND/OR OBSTRUCTIONS TO VISIBILITY.

* THESE STATIONS ARE NOT UNDER NWS QUALITY CONTROL. THEY ALSO MAY NOT
  REPORT WEATHER SUCH AS PRECIPITATION OR FOG.

INZ001>027-220400-
NORTHERN INDIANA

CITY           SKY/WX    TMP DP  RH WIND       PRES   REMARKS
GARY*          PTCLDY    39  39 100 CALM      29.60R
VALPARAISO     FOG       43  43 100 CALM      29.59R VSB 1/4
LAPORTE*       FOG       40  40  99 CALM      29.59R VSB 1/4
KNOX*          PTCLDY    46  39  76 CALM      29.59R
SOUTH BEND     PTCLDY    41  41 100 W3        29.60R
GOSHEN         FOG       45  43  93 S3        29.59R VSB 3/4
ROCHESTER*     FOG       45  45 100 CALM      29.60S VSB 1/2
WARSAW*        MOCLDY    48  46  93 CALM      29.60R FOG
FORT WAYNE     MOCLDY    50  47  89 S7        29.62R
PERU/GRISSOM   MOCLDY    49  49 100 S3        29.58R
MARION*        CLOUDY    52  48  87 S5        29.62R

$$
INZ028>050-220400-
CENTRAL INDIANA

CITY           SKY/WX    TMP DP  RH WIND       PRES   REMARKS
LAFAYETTE      PTCLDY    48  47  96 CALM      29.58R
KOKOMO*        CLOUDY    51  49  92 S8        29.61R
MUNCIE*        CLOUDY    56  51  84 S6        29.62R
INDIANAPOLIS   CLOUDY    54  48  80 SE7       29.61R

$$
MIZ043>046-050>051-056>058-064>065-071>073-077>080-220400-
SOUTHWEST LOWER MICHIGAN

CITY           SKY/WX    TMP DP  RH WIND       PRES   REMARKS
BATTLE CREEK   CLEAR     48  48 100 S7        29.59S
BENTON HARBOR  CLEAR     45  43  93 CALM      29.58R FOG
COLDWATER*     PTCLDY    50  50 100 SE6       29.60R FOG
HILLSDALE*     PTCLDY    46  46 100 SE5       29.60S FOG
HOLLAND        CLEAR     47  41  80 CALM      29.58R
GRAND RAPIDS   PTCLDY    49  46  90 S5        29.57R
KALAMAZOO      PTCLDY    47  44  90 S6        29.59R
STURGIS*       PTCLDY    47  47  99 SE3       29.59R FOG
THREE RIVERS*  FOG       45  45  98 CALM      29.59S VSB 1/4

$$
OHZ001>008-015>018-024>025-220400-
NORTHWEST OHIO

CITY           SKY/WX    TMP DP  RH WIND       PRES   REMARKS
DEFIANCE       CLEAR     49  47  93 S3        29.62R
FINDLAY        CLEAR     51  47  86 S7        29.62R
TOLEDO EXPRESS CLEAR     49  49 100 SE3       29.61S
TOLEDO METCALF CLEAR     48  48 100 SE6       29.63S
LIMA           PTCLDY    51  50  96 S8        29.63R

$$
AND FOR LAKE MICHIGAN COASTAL AND OPEN LAKE BUOY OBSERVATIONS

STATION/POSITION TEMP    WIND        PRES    VSBY  WAVE
                 AIR SEA DIR/SP/G                  HT/PER
                 (F)     (DEG/KT/KT) (MB)    (MI)  (FT/S)
CALUMET HARBOR    46     260/  2/  3 1001.3R
MICHIGAN CITY     53     180/  5/  5   N/A
BURNS HARBOR      48     280/  4/ 10 1002.7

$$
&&



USA.gov is the U.S. government's official web portal to all federal, state and local government web resources and services.